{"data":{"norad_id":66514,"intl_designator":"2025-264A","name":"SENTINEL-6B","alt_names":[],"object_type":"PAYLOAD","status":"ACTIVE","operator":null,"country":"ESA","launch_date":"2025-11-17","launch_site_code":"AFWTR","launch_vehicle":null,"mission":null,"orbit_class":"UNKNOWN","rcs_meters":null,"size_class":null,"mass_kg":null,"dimensions":null,"purposes":["earth_obs"],"wikipedia_slug":null,"has_3d_model":false,"image_url":null,"decayed_at":null,"tle_current":{"epoch":"2026-05-25T03:09:21.791808Z","epoch_age_seconds":61002,"freshness":"FRESH","line1":"1 66514U 25264A   26145.13150222 -.00000048  00000+0  54968-4 0  9993","line2":"2 66514  66.0392 183.0660 0008054 269.3915  90.6177 12.80929096 24211","mean_motion":12.80929096,"eccentricity":0.0008054,"inclination_deg":66.0392,"raan_deg":183.066,"arg_perigee_deg":269.3915,"mean_anomaly_deg":90.6177,"bstar":5.4968e-5,"rev_number":2421,"period_min":112.41840040145,"perigee_km":1331.5224079105,"apogee_km":1343.9511373835,"semimajor_km":7715.873772647,"source":"CELESTRAK","updated_at":"2026-05-25T13:38:12.840642Z"}}}